Tracking 31027 objects as of 19-Jul-2025
HD Live streaming from Space Station
objects crossing your sky now

COSMOS 249 DEB *

Track COSMOS 249 DEB * now!
10-day predictions


NORAD ID: 6176
Int'l Code: 1968-091CG
Perigee: 880.4 km
Apogee: 1,593.5 km
Inclination: 65.7 °
Period: 110.1 minutes
Semi major axis: 7607 km
RCS: 0.0254 m2 (small)
Launch date: October 20, 1968
Source: Commonwealth of Independent States (former USSR) (CIS)
Launch site: TYURATAM MISSILE AND SPACE COMPLEX (TTMTR)

Note: This is SATELLITE DEBRIS
Your satellite tracking list
CZ-4C DEB
Track 1 satellite(s)




NASA's NSSDC Master Catalog

Two Line Element Set (TLE):
1 06176U 68091CG  25199.51176380  .00001207  00000-0  21967-2 0  9998
2 06176  65.7260 248.3572 0468675 182.2556 177.6364 13.08288106115530
Source of the keplerian elements: AFSPC